Wind_Speed
39 39 38 38 38 39 39 38 36 35 35 35 34 33 33 32 31 29 26 25 24 23 22 23 23 23 23 22 20 17 15 14 14 13 14 16 17 17 16 16 15 15 15
43 44 43 41 41 42 43 42 40 38 38 38 37 36 35 34 33 32 30 28 28 28 27 27 27 27 27 27 25 23 20 18 17 16 15 15 16 18 19 18 17 16 16
41 41 40 39 38 39 40 40 40 40 40 39 38 37 36 35 34 34 34 32 31 31 32 30 30 30 31 31 30 29 27 24 21 19 18 17 17 17 19 20 20 19 17
38 37 36 36 38 39 38 37 37 38 39 39 38 37 36 36 36 36 35 35 34 33 33 33 33 32 33 33 34 33 32 30 27 23 21 20 19 18 19 21 21 20 19
40 40 39 39 39 40 40 40 41 42 42 42 42 41 40 40 39 38 36 35 34 34 34 34 34 34 34 34 35 36 37 36 32 29 25 23 21 21 21 21 22 22 20
40 41 41 42 42 42 42 43 44 44 44 43 43 42 41 40 38 37 36 36 34 33 33 33 33 34 35 35 35 37 39 39 37 34 30 27 24 23 22 22 22 22 22
37 38 38 38 39 39 40 41 42 42 42 42 41 39 38 37 35 35 35 35 34 33 33 32 32 34 35 36 36 37 39 40 41 38 34 30 27 25 24 23 23 24 24
37 37 37 36 36 35 35 36 37 38 38 38 38 37 36 35 34 34 35 35 34 34 33 32 32 33 35 36 37 37 38 40 42 40 38 34 30 27 25 25 25 26 26
39 39 39 39 38 36 35 35 35 35 36 36 37 37 36 35 36 36 36 36 36 35 33 32 31 32 33 35 36 37 38 40 42 41 39 36 31 28 26 26 26 27 28
40 41 41 41 41 40 38 37 36 36 37 37 38 38 37 36 35 35 37 37 38 36 34 32 32 32 32 32 33 34 35 37 39 40 39 35 31 28 26 26 27 27 28
38 39 40 41 41 41 40 39 38 37 37 37 37 37 37 36 36 35 35 36 37 36 34 33 33 31 30 30 30 31 32 34 36 37 36 34 31 28 26 26 26 27 28
36 37 39 40 41 42 41 40 39 38 37 37 37 37 38 38 37 37 36 35 37 36 34 32 31 30 29 29 30 32 32 31 32 33 33 32 31 29 28 27 27 28 29
36 36 36 38 40 41 41 42 41 40 39 39 39 39 39 39 38 38 37 36 37 36 34 32 30 28 27 28 30 33 33 33 32 32 32 31 31 30 29 29 29 29 29
37 36 35 36 37 38 40 41 41 42 41 41 40 40 39 39 38 37 36 35 35 33 32 30 29 28 30 30 30 33 34 33 33 32 31 31 31 31 31 31 32 32 31
39 38 36 34 34 35 36 37 38 40 41 41 40 39 39 37 36 35 34 33 31 29 28 27 27 28 29 30 30 30 33 34 34 33 32 32 32 31 31 32 33 33 33
39 39 37 34 32 32 33 33 34 36 37 38 38 37 35 34 33 32 31 29 28 27 25 25 26 27 28 30 31 31 32 33 35 35 34 33 32 32 32 32 33 34 35
39 39 37 33 31 30 30 29 30 31 32 33 33 32 31 30 30 29 28 27 26 25 24 25 25 25 26 29 31 33 34 33 35 36 34 31 31 31 32 33 34 35 36
38 38 37 33 31 29 27 26 26 26 27 27 27 27 27 26 25 25 26 26 26 27 26 26 26 27 28 30 31 31 30 28 28 28 28 28 29 30 32 33 34 36 37
38 37 35 33 30 28 27 25 24 23 22 22 22 23 24 24 24 25 27 27 28 29 28 28 27 28 28 27 25 24 22 22 21 21 22 24 26 28 30 32 34 37 39
38 37 34 32 30 28 26 25 23 21 20 20 20 21 23 24 25 27 29 29 29 29 28 26 25 23 22 20 18 17 17 18 20 21 22 24 25 27 29 31 33 35 37
39 37 34 32 30 28 26 24 22 20 19 19 20 20 21 23 24 25 26 26 25 23 22 20 18 17 16 15 15 15 16 17 19 20 22 24 26 28 30 32 34 36 38
40 38 34 32 29 28 25 23 21 18 18 19 20 20 20 20 21 20 19 18 17 16 15 16 17 16 15 14 14 14 15 16 19 21 23 25 27 29 31 33 36 38 40
42 39 35 32 29 27 25 23 21 18 18 19 19 19 19 18 17 17 16 16 16 16 16 16 15 14 13 12 13 14 15 17 18 20 22 24 25 27 30 32 35 38 41
43 41 36 32 29 26 24 22 20 18 18 19 18 17 17 16 16 16 16 16 15 15 14 13 12 11 11 11 12 13 14 15 17 19 21 24 26 29 32 35 38 42 45
45 42 37 32 29 26 24 21 19 18 17 17 17 16 16 15 16 16 15 15 15 13 12 10 10 9 9 10 10 12 13 15 17 19 21 23 25 27 30 33 36 39 43
46 43 39 33 29 27 23 21 18 17 16 15 14 14 14 14 14 15 15 14 13 12 11 10 9 8 8 8 9 10 12 13 14 15 16 18 19 22 24 27 29 31 33
Wind_Direction
278 277 274 273 273 273 272 270 268 268 268 269 270 271 272 271 270 269 270 270 269 270 270 267 263 259 257 256 257 261 265 269 269 268 263 259 259 262 266 270 274 274 270
279 277 273 271 271 271 269 266 265 264 264 265 267 268 270 272 271 271 271 272 272 272 273 273 267 261 258 256 254 254 257 261 264 266 266 262 260 260 261 263 266 271 271
282 282 280 277 276 278 277 273 271 272 271 271 271 272 272 272 272 271 272 273 274 273 275 274 270 263 258 256 253 251 251 253 258 262 265 264 261 261 262 262 261 263 267
282 282 281 280 278 277 279 277 275 275 275 275 275 276 275 274 274 272 272 273 274 274 274 272 269 264 259 257 254 251 249 248 251 256 262 263 261 260 260 262 262 260 261
281 280 281 281 279 278 277 276 275 274 274 275 275 275 276 274 272 271 272 273 274 274 275 272 268 264 260 258 255 253 249 247 246 250 256 260 261 257 255 257 260 260 258
282 281 280 279 278 277 276 276 275 274 274 273 273 274 274 275 272 270 271 273 273 273 272 270 266 262 260 258 257 254 250 247 244 245 250 255 258 256 252 253 256 258 256
282 282 281 281 279 278 276 275 274 273 272 272 271 272 273 274 275 272 270 270 270 269 268 268 264 260 260 260 259 257 252 246 244 243 245 250 253 253 251 254 257 257 255
283 282 281 280 280 279 278 276 275 273 272 271 271 272 273 273 272 270 269 269 268 267 267 268 264 260 260 262 260 257 252 246 242 241 243 246 249 251 252 255 256 255 254
285 282 279 278 277 276 276 276 275 273 272 271 272 274 275 273 269 268 268 267 267 268 268 268 266 263 262 262 261 257 251 244 240 240 241 243 245 248 253 256 256 254 252
287 283 280 277 275 275 274 274 274 274 272 272 273 274 275 275 272 269 267 267 267 267 268 268 266 265 263 262 260 254 247 243 239 238 239 240 241 243 251 257 255 252 250
295 287 281 277 275 274 274 274 275 274 273 273 273 273 274 276 275 273 269 266 266 267 268 268 264 263 263 260 255 248 243 240 236 236 237 236 236 239 249 256 255 251 248
305 295 286 280 275 273 273 273 274 274 273 273 273 273 273 275 276 274 272 268 268 267 266 265 260 258 258 255 250 245 240 234 232 232 233 233 234 240 250 254 253 249 247
314 304 294 286 280 275 273 271 271 271 271 271 271 272 273 274 274 273 271 268 267 266 263 260 254 251 249 249 246 245 241 235 231 230 231 233 237 244 248 250 250 247 246
321 313 303 293 284 279 275 272 270 269 269 268 269 270 272 273 273 271 268 266 265 263 259 253 247 242 241 245 247 245 242 237 232 231 234 238 242 245 247 246 245 244 243
325 320 312 303 293 285 278 274 270 268 267 267 267 268 270 270 270 268 264 262 260 258 253 244 238 237 239 244 248 246 245 238 231 231 235 241 244 246 246 246 244 244 243
325 323 317 310 303 295 287 279 273 269 267 266 266 267 267 267 265 261 257 254 252 248 242 235 235 236 240 243 244 247 248 243 236 233 235 239 243 245 245 245 245 245 245
322 323 320 315 310 304 296 289 280 273 269 267 266 264 263 261 257 252 248 243 240 236 232 234 236 241 247 247 247 248 248 247 245 241 240 241 242 243 245 246 246 247 248
317 319 319 316 313 309 303 297 289 278 271 267 264 260 256 253 248 242 238 233 231 226 227 237 244 250 253 251 250 250 248 247 248 246 244 245 246 248 249 249 249 249 251
313 315 315 314 312 310 308 304 294 281 271 265 260 255 249 243 239 235 232 230 232 231 235 239 244 249 248 247 247 248 248 248 248 249 250 252 254 255 255 255 255 254 253
308 310 311 309 309 308 307 305 296 282 269 260 251 245 237 233 233 227 226 228 231 231 232 236 241 241 240 240 244 248 250 251 253 254 256 258 259 260 261 261 260 260 259
303 303 305 303 303 303 303 302 296 280 264 253 244 235 226 219 219 219 218 222 226 230 230 229 230 231 233 237 243 247 253 257 260 262 264 265 267 268 268 268 267 266 265
296 296 296 296 296 297 297 297 295 278 263 257 249 237 228 223 218 213 210 210 213 214 215 220 226 230 235 240 246 254 261 267 270 272 273 273 273 273 273 273 272 271 270
287 287 287 287 287 289 290 289 287 279 264 260 252 241 234 230 223 215 210 207 207 209 214 220 226 232 239 249 260 269 274 276 275 275 275 276 277 278 278 276 275 273 272
278 278 278 278 278 280 281 281 280 277 265 255 247 242 237 230 223 218 214 209 207 207 210 217 226 237 251 262 269 272 275 276 278 281 282 283 283 282 280 278 277 275 274
267 268 268 268 268 270 272 272 273 270 260 247 241 236 233 230 229 221 214 209 206 205 206 217 232 244 254 262 268 272 276 281 284 287 288 289 288 287 286 285 284 282 281
257 257 258 258 258 260 262 261 263 261 253 243 236 230 223 221 219 212 206 203 200 202 206 215 226 237 247 258 267 276 284 289 293 295 297 299 299 298 298 297 296 295 293
Height
5875 5874 5874 5872 5871 5870 5868 5868 5867 5867 5866 5866 5866 5865 5865 5866 5866 5866 5866 5867 5867 5867 5867 5868 5868 5868 5868 5868 5869 5869 5869 5870 5871 5871 5872 5873 5874 5875 5877 5878 5879 5879 5880
5866 5864 5863 5862 5861 5860 5859 5858 5858 5857 5857 5857 5857 5857 5857 5858 5859 5859 5859 5859 5860 5859 5860 5860 5861 5862 5862 5862 5863 5863 5864 5865 5866 5867 5867 5868 5869 5870 5872 5873 5874 5876 5877
5856 5854 5853 5853 5852 5851 5850 5849 5849 5849 5849 5848 5848 5848 5849 5850 5850 5851 5851 5852 5852 5851 5851 5852 5853 5853 5854 5855 5856 5857 5858 5859 5860 5861 5862 5863 5864 5865 5866 5868 5869 5871 5872
5848 5847 5846 5845 5844 5843 5843 5842 5842 5842 5841 5841 5840 5840 5840 5841 5842 5842 5843 5843 5843 5843 5843 5843 5844 5844 5846 5847 5848 5850 5851 5853 5854 5855 5856 5857 5858 5859 5861 5862 5864 5866 5867
5840 5839 5838 5838 5836 5835 5835 5834 5834 5833 5833 5832 5832 5832 5832 5832 5833 5833 5834 5834 5834 5835 5835 5834 5834 5835 5836 5838 5839 5841 5843 5845 5847 5849 5850 5851 5852 5853 5854 5856 5858 5860 5862
5832 5830 5829 5828 5827 5826 5826 5825 5824 5823 5823 5823 5822 5823 5823 5824 5824 5824 5824 5825 5825 5826 5826 5826 5825 5825 5826 5828 5830 5831 5833 5836 5838 5841 5843 5844 5845 5847 5848 5849 5851 5854 5856
5822 5820 5819 5817 5816 5816 5816 5815 5814 5813 5813 5813 5812 5813 5814 5814 5814 5815 5814 5815 5816 5816 5817 5817 5816 5816 5817 5818 5820 5821 5823 5825 5828 5832 5835 5837 5838 5840 5841 5843 5845 5847 5849
5813 5811 5809 5808 5806 5806 5805 5804 5803 5803 5803 5802 5802 5802 5803 5805 5805 5805 5805 5805 5806 5807 5807 5807 5807 5807 5807 5808 5809 5810 5812 5814 5818 5822 5826 5829 5831 5833 5834 5836 5837 5839 5842
5804 5802 5800 5798 5797 5796 5796 5795 5794 5793 5793 5793 5792 5791 5792 5794 5795 5795 5795 5795 5796 5797 5797 5797 5797 5798 5798 5798 5798 5799 5801 5803 5807 5812 5816 5820 5823 5825 5827 5828 5830 5831 5834
5793 5790 5789 5788 5787 5786 5786 5785 5784 5783 5783 5783 5782 5782 5782 5782 5784 5785 5785 5785 5785 5786 5787 5787 5788 5788 5788 5788 5788 5789 5790 5793 5798 5802 5807 5811 5814 5817 5819 5820 5821 5823 5825
5782 5779 5778 5776 5775 5775 5774 5774 5773 5773 5772 5772 5772 5772 5772 5772 5772 5773 5775 5775 5774 5775 5777 5778 5778 5779 5779 5779 5779 5780 5782 5785 5789 5793 5798 5802 5805 5808 5810 5812 5813 5815 5817
5772 5769 5766 5765 5763 5763 5762 5762 5762 5762 5762 5761 5761 5761 5761 5762 5762 5762 5763 5764 5764 5765 5767 5768 5769 5770 5770 5771 5771 5772 5774 5777 5781 5785 5789 5793 5796 5799 5802 5803 5805 5807 5809
5765 5760 5756 5754 5752 5751 5750 5750 5750 5750 5750 5751 5751 5751 5751 5751 5751 5751 5752 5753 5754 5755 5757 5758 5760 5762 5763 5763 5764 5765 5766 5769 5773 5777 5781 5785 5788 5791 5793 5795 5796 5798 5800
5757 5752 5748 5744 5741 5740 5739 5738 5738 5738 5739 5739 5739 5739 5739 5739 5740 5740 5741 5742 5744 5745 5747 5749 5751 5753 5755 5756 5756 5757 5758 5761 5765 5769 5774 5777 5780 5782 5784 5786 5788 5790 5793
5749 5744 5739 5735 5732 5730 5728 5727 5726 5726 5727 5727 5728 5728 5728 5728 5728 5729 5730 5732 5734 5736 5738 5741 5743 5745 5748 5749 5750 5750 5751 5753 5757 5761 5765 5769 5772 5774 5776 5778 5780 5782 5785
5742 5736 5731 5727 5723 5720 5718 5717 5716 5715 5715 5716 5716 5716 5717 5717 5718 5719 5720 5722 5725 5729 5731 5734 5736 5738 5741 5742 5743 5744 5745 5747 5749 5752 5756 5760 5763 5765 5767 5769 5772 5774 5776
5735 5729 5724 5720 5716 5713 5710 5708 5706 5705 5704 5705 5705 5706 5706 5707 5708 5710 5712 5714 5718 5721 5724 5727 5729 5732 5734 5736 5737 5738 5739 5741 5742 5745 5747 5751 5754 5756 5759 5761 5763 5765 5767
5728 5723 5718 5714 5710 5706 5703 5700 5698 5696 5695 5695 5696 5697 5698 5699 5700 5703 5705 5707 5711 5714 5718 5721 5723 5726 5728 5729 5730 5731 5732 5734 5736 5738 5740 5743 5746 5748 5750 5752 5754 5756 5758
5721 5716 5712 5708 5704 5701 5698 5695 5692 5690 5689 5688 5689 5689 5690 5692 5694 5697 5699 5702 5705 5708 5712 5715 5717 5719 5721 5723 5724 5726 5727 5729 5730 5733 5735 5737 5739 5740 5742 5743 5745 5746 5748
5713 5710 5706 5702 5699 5696 5692 5690 5687 5685 5684 5683 5683 5684 5685 5686 5689 5691 5693 5696 5699 5703 5706 5709 5711 5713 5715 5717 5719 5721 5722 5724 5726 5728 5729 5731 5732 5733 5734 5735 5736 5736 5737
5705 5702 5699 5696 5693 5690 5687 5685 5683 5681 5680 5679 5679 5679 5680 5682 5684 5686 5688 5691 5695 5698 5701 5704 5706 5709 5711 5713 5715 5717 5718 5720 5721 5722 5724 5725 5725 5726 5726 5726 5727 5727 5727
5696 5694 5692 5689 5687 5685 5682 5680 5678 5677 5676 5676 5675 5675 5676 5678 5680 5682 5684 5687 5691 5694 5697 5700 5702 5704 5706 5708 5710 5712 5714 5715 5716 5717 5717 5718 5718 5718 5718 5717 5717 5717 5716
5686 5684 5683 5682 5680 5678 5676 5675 5674 5672 5672 5672 5672 5672 5673 5674 5676 5678 5681 5684 5687 5690 5694 5696 5699 5701 5703 5704 5706 5708 5709 5710 5710 5710 5710 5710 5710 5710 5709 5708 5707 5706 5704
5673 5674 5673 5673 5672 5671 5670 5669 5668 5667 5667 5667 5667 5668 5669 5670 5672 5675 5677 5680 5684 5687 5690 5692 5695 5697 5699 5700 5702 5703 5703 5704 5704 5703 5703 5703 5702 5701 5699 5697 5695 5693 5691
5659 5661 5662 5663 5663 5663 5663 5662 5662 5662 5662 5662 5663 5663 5665 5667 5669 5671 5674 5677 5680 5683 5686 5689 5691 5693 5695 5696 5697 5698 5698 5698 5698 5697 5696 5695 5693 5691 5689 5686 5683 5680 5677
5644 5646 5649 5652 5653 5655 5655 5656 5656 5656 5657 5657 5658 5659 5661 5663 5666 5668 5671 5674 5677 5681 5684 5686 5688 5690 5691 5692 5693 5693 5693 5693 5692 5691 5690 5688 5686 5683 5680 5677 5673 5669 5665